This demonstration page uses our WeatherBlox Daily Observations layout. Learn more.

Hourly Observations for August 22, 2017

Temp ( °F °C ) Dew Point ( °F °C ) Humidity (%) Winds ( mph kmh ) Pressure ( in mb ) Visibility ( mi km ) Precip ( " mm )
12:15 am 00:15 Cloudy 69 20.6 64 17.8 84 84 NNE 9 15 29.97 1015 10 16.09344 0 0
12:35 am 00:35 Cloudy 69 20.3 64 17.6 85 85 NNE 10 17 29.97 1015 10 16.09344 0 0
12:55 am 00:55 Cloudy 68 20 64 17.6 86 86 N 7 11 30.03 1017 10 16.09344 0 0
1:15 am 01:15 Partly Cloudy 66 19.1 64 17.5 91 91 N 8 13 30.03 1017 10 16.09344 0 0
1:35 am 01:35 Clear 66 18.7 63 17.2 91 91 N 10 17 30.03 1017 10 16.09344 0 0
1:55 am 01:55 Partly Cloudy 65 18.3 63 17.1 93 93 NNE 7 11 30.03 1017 10 16.09344 0 0
2:15 am 02:15 Mostly Cloudy 64 18 63 17 94 94 N 7 11 30.03 1017 10 16.09344 0 0
2:35 am 02:35 Partly Cloudy 64 17.7 62 16.7 94 94 N 8 13 30.03 1017 10 16.09344 0 0
2:55 am 02:55 Clear 63 17.3 62 16.5 95 95 N 7 11 30.03 1017 10 16.09344 0 0
3:15 am 03:15 Clear 63 17.2 61 16.3 94 94 N 6 9 30.06 1018 10 16.09344 0 0
3:35 am 03:35 Clear 63 17.1 61 16.2 94 94 N 8 13 30.09 1019 10 16.09344 0 0
3:55 am 03:55 Clear 63 17 61 16.1 94 94 N 8 13 30.09 1019 10 16.09344 0 0
4:15 am 04:15 Clear 63 17 61 16 94 94 N 8 13 30.09 1019 10 16.09344 0 0
4:35 am 04:35 Clear 63 17 61 16 94 94 N 9 15 30.09 1019 10 16.09344 0 0
4:55 am 04:55 Clear 63 17 61 16 94 94 N 10 17 30.09 1019 10 16.09344 0 0
5:15 am 05:15 Clear 63 17.1 61 16.1 94 94 N 8 13 30.09 1019 10 16.09344 0 0
5:35 am 05:35 Clear 63 17.2 61 16.2 94 94 N 8 13 30.06 1018 10 16.09344 0 0
5:55 am 05:55 Clear 62 16.7 60 15.5 93 93 N 10 17 30.09 1019 10 16.09344 0 0
6:15 am 06:15 Clear 62 16.4 59 15 91 91 NNE 10 17 30.09 1019 10 16.09344 0 0
6:35 am 06:35 Clear 60 15.8 58 14.3 91 91 Calm 30.12 1020 10 16.09344 0 0
6:55 am 06:55 Clear 59 15.2 56 13.6 90 90 NNE 3 6 30.12 1020 10 16.09344 0 0
7:15 am 07:15 Sunny 58 14.6 56 13.2 91 91 NE 5 7 30.15 1021 10 16.09344 0 0
7:35 am 07:35 Sunny 58 14.7 56 13.3 91 91 NNE 7 11 30.15 1021 10 16.09344 0 0
7:55 am 07:55 Sunny 59 15.1 56 13.4 90 90 NNE 5 7 30.15 1021 10 16.09344 0 0
8:15 am 08:15 Sunny 60 15.5 56 13.5 88 88 NE 3 6 30.18 1022 10 16.09344 0 0
8:35 am 08:35 Sunny 61 16 56 13.1 83 83 NE 7 11 30.18 1022 10 16.09344 0 0
8:55 am 08:55 Sunny 62 16.5 56 13.1 80 80 ENE 7 11 30.18 1022 10 16.09344 0 0
9:15 am 09:15 Sunny 63 17.1 55 12.9 76 76 ENE 8 13 30.18 1022 10 16.09344 0 0
9:35 am 09:35 Sunny 63 17.4 55 12.9 75 75 ENE 9 15 30.18 1022 10 16.09344 0 0
9:55 am 09:55 Sunny 64 18 54 12.4 70 70 ENE 9 15 30.18 1022 10 16.09344 0 0
10:15 am 10:15 Sunny 65 18.6 53 11.6 64 64 ENE 13 20 30.15 1021 10 16.09344 0 0
10:35 am 10:35 Sunny 67 19.2 54 12.4 65 65 E 9 15 30.15 1021 10 16.09344 0 0
10:55 am 10:55 Sunny 67 19.5 54 12 62 62 E 12 19 30.18 1022 10 16.09344 0 0
11:15 am 11:15 Sunny 68 20 53 11.6 59 59 ENE 10 17 30.18 1022 10 16.09344 0 0
11:35 am 11:35 Sunny 69 20.4 53 11.5 57 57 E 7 11 30.18 1022 10 16.09344 0 0
11:55 am 11:55 Sunny 69 20.8 53 11.4 55 55 ENE 8 13 30.18 1022 10 16.09344 0 0
12:15 pm 12:15 Sunny 70 21.1 53 11.7 55 55 E 5 7 30.18 1022 10 16.09344 0 0
12:35 pm 12:35 Sunny 71 21.4 51 10.6 50 50 NE 5 7 30.18 1022 10 16.09344 0 0
12:55 pm 12:55 Sunny 71 21.7 52 10.9 50 50 N 3 6 30.18 1022 10 16.09344 0 0
1:15 pm 13:15 Sunny 72 22 48 8.8 43 43 E 7 11 30.15 1021 10 16.09344 0 0
1:35 pm 13:35 Sunny 71 21.9 49 9.7 46 46 ENE 5 7 30.15 1021 10 16.09344 0 0
1:55 pm 13:55 Sunny 72 22.1 50 10.1 47 47 ENE 8 13 30.15 1021 10 16.09344 0 0
2:15 pm 14:15 Sunny 72 22.2 52 10.9 49 49 NE 7 11 30.15 1021 10 16.09344 0 0
2:35 pm 14:35 Sunny 73 22.7 52 10.9 47 47 E 6 9 30.12 1020 10 16.09344 0 0
2:55 pm 14:55 Sunny 73 22.5 49 9.5 44 44 E 3 6 30.12 1020 10 16.09344 0 0
3:15 pm 15:15 Sunny 73 22.8 51 10.6 46 46 ENE 6 9 30.12 1020 10 16.09344 0 0
3:35 pm 15:35 Sunny 73 23 51 10.7 46 46 ENE 6 9 30.12 1020 10 16.09344 0 0
3:55 pm 15:55 Sunny 74 23.1 51 10.7 46 46 E 5 7 30.12 1020 10 16.09344 0 0
4:15 pm 16:15 Sunny 73 23 50 10.1 44 44 NNE 3 6 30.12 1020 10 16.09344 0 0
4:35 pm 16:35 Sunny 74 23.3 51 10.8 45 45 NE 6 9 30.12 1020 10 16.09344 0 0
4:55 pm 16:55 Sunny 74 23.2 52 10.9 46 46 NE 5 7 30.09 1019 10 16.09344 0 0
5:15 pm 17:15 Sunny 74 23.1 51 10.5 45 45 ENE 3 6 30.09 1019 10 16.09344 0 0
5:35 pm 17:35 Sunny 74 23.1 52 11.1 47 47 E 3 6 30.09 1019 10 16.09344 0 0
5:55 pm 17:55 Sunny 74 23.1 51 10.3 44 44 Calm 30.09 1019 10 16.09344 0 0
6:15 pm 18:15 Sunny 73 23 52 10.9 47 47 Calm 30.09 1019 10 16.09344 0 0
6:35 pm 18:35 Sunny 73 22.7 55 12.5 53 53 ENE 3 6 30.09 1019 10 16.09344 0 0
6:55 pm 18:55 Sunny 72 22.3 55 12.6 54 54 ENE 5 7 30.09 1019 10 16.09344 0 0
7:15 pm 19:15 Sunny 72 22 56 13.4 58 58 E 3 6 30.06 1018 10 16.09344 0 0
7:35 pm 19:35 Sunny 71 21.4 58 14.2 64 64 Calm 30.06 1018 10 16.09344 0 0
7:55 pm 19:55 Sunny 69 20.7 58 14.7 69 69 ESE 5 7 30.09 1019 10 16.09344 0 0
8:15 pm 20:15 Sunny 67 19.6 58 14.7 73 73 SE 3 6 30.09 1019 10 16.09344 0 0
8:35 pm 20:35 Clear 65 18.6 58 14.4 77 77 SE 5 7 30.09 1019 10 16.09344 0 0
8:55 pm 20:55 Clear 64 17.8 58 14.2 80 80 SE 3 6 30.09 1019 10 16.09344 0 0
9:15 pm 21:15 Clear 63 17.2 57 13.8 81 81 Calm 30.12 1020 10 16.09344 0 0
9:35 pm 21:35 Clear 62 16.5 57 14.1 86 86 SE 3 6 30.15 1021 10 16.09344 0 0
9:55 pm 21:55 Clear 61 16.2 57 14 87 87 Calm 30.15 1021 10 16.09344 0 0
10:15 pm 22:15 Clear 62 16.9 56 13.4 80 80 Calm 30.15 1021 10 16.09344 0 0
10:35 pm 22:35 Clear 61 16 56 13.1 83 83 Calm 30.15 1021 10 16.09344 0 0
10:55 pm 22:55 Clear 59 15.2 55 12.6 85 85 Calm 30.15 1021 10 16.09344 0 0
11:15 pm 23:15 Clear 60 15.8 55 12.5 81 81 Calm 30.15 1021 10 16.09344 0 0
11:35 pm 23:35 Clear 61 16.1 54 12.1 77 77 S 3 6 30.15 1021 10 16.09344 0 0
11:55 pm 23:55 Clear 60 15.8 54 12 78 78 SSE 3 6 30.15 1021 10 16.09344 0 0

Powered by AerisWeather